FW8927 Weather Reports


time (UTC)temp
C
wind
direction
speed
KPH
gust
KPH
rain 1hr
cm
rain 24hr
cm
rain mn
cm
humidity
%
barometer
mb
20260903084605 22 0 0.0 0.0 0.00 0.00 0.00 99 1016.3
20260903083107 22 0 0.0 0.0 0.00 0.00 0.00 99 1016.1
20260903081604 22 0 0.0 0.0 0.00 0.00 0.00 99 1016.2
20260903074558 22 0 0.0 0.0 0.00 0.00 0.00 99 1016.1
20260903073107 22 0 0.0 0.0 0.00 0.00 0.00 98 1016.1
20260903071612 22 0 0.0 0.0 0.00 0.00 0.00 98 1016.0
20260903070112 22 0 0.0 0.0 0.00 0.00 0.00 99 1015.8
20260903064602 22 0 0.0 0.0 0.00 0.00 0.00 98 1015.9
20260903063126 22 0 0.0 0.0 0.00 0.00 0.00 98 1015.9
20260903061605 22 0 0.0 0.0 0.00 0.00 0.00 98 1015.8
20260903060117 22 0 0.0 0.0 0.00 0.00 0.00 98 1016.0
20260903054606 22 0 0.0 0.0 0.00 0.00 0.00 97 1015.9
20260903053105 22 0 0.0 0.0 0.00 0.00 0.00 97 1016.0
20260903051610 23 0 0.0 0.0 0.00 0.00 0.00 97 1015.9
20260903050129 23 0 0.0 0.0 0.00 0.00 0.00 96 1015.8
20260903044606 23 0 0.0 0.0 0.00 0.00 0.00 97 1015.9
20260903043103 23 0 0.0 0.0 0.00 0.00 0.00 96 1015.8
20260903041606 23 0 0.0 0.0 0.00 0.00 0.00 95 1015.9
20260903040110 23 0 0.0 0.0 0.00 0.00 0.00 95 1015.9
20260903034602 23 0 0.0 0.0 0.00 0.00 0.00 94 1015.9
20260903033104 24 0 0.0 0.0 0.00 0.00 0.00 93 1016.1
20260903031604 24 0 0.0 0.0 0.00 0.00 0.00 92 1016.0
20260903030108 25 0 0.0 0.0 0.00 0.00 0.00 91 1016.1
20260903024604 25 0 0.0 0.0 0.00 0.00 0.00 90 1016.1
20260903023110 25 0 0.0 0.0 0.00 0.00 0.00 90 1016.2
20260903021607 25 0 0.0 0.0 0.00 0.00 0.00 89 1016.2
20260903020106 25 0 0.0 0.0 0.00 0.00 0.00 88 1016.2
20260903014608 26 0 0.0 0.0 0.00 0.00 0.00 88 1016.2
20260903013107 26 0 0.0 0.0 0.00 0.00 0.00 87 1016.1
20260903011611 26 0 0.0 0.0 0.00 0.00 0.00 86 1016.0
20260903010105 27 0 0.0 0.0 0.00 0.00 0.00 85 1015.8
20260903004605 27 0 0.0 0.0 0.00 0.00 0.00 84 1015.8
20260903003102 27 0 0.0 6.4 0.00 0.00 0.00 81 1015.6
20260903001607 28 0 0.0 0.0 0.00 0.00 0.00 79 1015.6
20260903000104 29 0 0.0 0.0 0.00 0.00 0.00 77 1015.7
20260902234603 30 0 0.0 0.0 0.00 0.00 0.00 74 1015.7
20260902233105 31 0 0.0 0.0 0.00 0.00 0.00 70 1015.9
20260902231609 32 0 0.0 0.0 0.00 0.00 0.00 67 1016.0
20260902224604 33 227 1.6 6.4 0.00 0.00 0.00 62 1016.0
20260902223109 33 239 1.6 4.8 0.00 0.00 0.00 61 1016.1
20260902221605 33 227 0.0 4.8 0.00 0.00 0.00 64 1016.1
20260902220109 33 0 1.6 6.4 0.00 0.00 0.00 62 1016.2
20260902214607 33 282 3.2 6.4 0.00 0.00 0.00 61 1016.2
20260902213105 33 159 4.8 9.7 0.00 0.00 0.00 64 1016.2
20260902211604 33 287 3.2 9.7 0.00 0.00 0.00 61 1016.2
20260902210110 33 273 1.6 11.3 0.00 0.00 0.00 65 1016.3
20260902204606 33 293 3.2 12.9 0.00 0.00 0.00 60 1016.3
20260902203104 33 235 1.6 12.9 0.00 0.00 0.00 61 1016.2
20260902201606 33 290 3.2 12.9 0.00 0.00 0.00 63 1016.5
20260902200121 33 261 6.4 11.3 0.00 0.00 0.00 59 1016.6
20260902194607 33 285 4.8 12.9 0.00 0.00 0.00 61 1016.8
20260902193107 33 284 6.4 12.9 0.00 0.00 0.00 62 1016.9
20260902191605 33 305 4.8 14.5 0.00 0.00 0.00 62 1017.0
20260902190109 33 0 1.6 12.9 0.00 0.00 0.00 64 1017.0
20260902184604 32 244 3.2 12.9 0.00 0.00 0.00 62 1017.3
20260902183109 32 273 4.8 14.5 0.00 0.00 0.00 64 1017.2
20260902181607 33 299 3.2 12.9 0.00 0.00 0.00 62 1017.4
20260902180132 32 222 4.8 12.9 0.00 0.00 0.00 64 1017.7
20260902174604 32 228 4.8 14.5 0.00 0.00 0.00 65 1017.8
20260902173111 32 325 4.8 17.7 0.00 0.00 0.00 67 1018.0
20260902171611 32 235 3.2 17.7 0.00 0.00 0.00 67 1018.1
20260902170108 31 238 1.6 12.9 0.00 0.00 0.00 67 1018.1
20260902164607 31 270 3.2 11.3 0.00 0.00 0.00 67 1018.3
20260902163106 32 0 1.6 9.7 0.00 0.00 0.00 71 1018.4
20260902161608 31 323 0.0 8.0 0.00 0.00 0.00 70 1018.5
20260902160108 31 294 3.2 9.7 0.00 0.00 0.00 72 1018.5
20260902154605 30 274 4.8 14.5 0.00 0.00 0.00 73 1018.5
20260902153104 30 253 3.2 11.3 0.00 0.00 0.00 73 1018.5
20260902151602 30 235 4.8 12.9 0.00 0.00 0.00 77 1018.4
20260902150105 29 220 0.0 8.0 0.00 0.00 0.00 82 1018.2
20260902144602 28 176 0.0 6.4 0.00 0.00 0.00 84 1018.3
20260902143108 27 231 0.0 8.0 0.00 0.00 0.00 87 1018.3
20260902141605 26 0 1.6 8.0 0.00 0.00 0.00 90 1018.2
20260902140108 26 217 4.8 8.0 0.00 0.00 0.00 91 1018.1
20260902134608 25 210 3.2 6.4 0.00 0.00 0.00 93 1018.0
20260902133102 24 202 1.6 6.4 0.00 0.00 0.00 96 1018.1
20260902131607 23 202 3.2 6.4 0.00 0.00 0.00 98 1018.0
20260902130106 22 202 3.2 6.4 0.00 0.00 0.00 100 1018.0
20260902124608 22 202 3.2 6.4 0.00 0.00 0.00 100 1018.0
20260902123109 21 0 0.0 0.0 0.00 0.00 0.00 100 1018.1
20260902121613 21 0 0.0 0.0 0.00 0.00 0.00 100 1018.2
20260902120107 21 0 0.0 0.0 0.00 0.00 0.00 100 1018.0
20260902114605 20 0 0.0 0.0 0.00 0.00 0.00 100 1018.0
20260902113112 20 0 0.0 0.0 0.00 0.00 0.00 100 1017.9
20260902111605 20 0 0.0 0.0 0.00 0.00 0.00 100 1017.7
20260902110121 20 0 0.0 0.0 0.00 0.00 0.00 100 1017.6
20260902104605 20 0 0.0 0.0 0.00 0.00 0.00 100 1017.5
20260902103105 20 0 0.0 0.0 0.00 0.00 0.00 99 1017.4
20260902101606 20 0 0.0 0.0 0.00 0.00 0.00 99 1017.3
20260902100113 20 0 0.0 0.0 0.00 0.00 0.00 99 1017.1
20260902094607 20 0 0.0 0.0 0.00 0.00 0.00 99 1017.0
20260902093101 20 0 0.0 0.0 0.00 0.00 0.00 100 1017.1
20260902091600 20 0 0.0 0.0 0.00 0.00 0.00 99 1017.0
20260902090104 21 0 0.0 0.0 0.00 0.00 0.00 99 1017.0